sat.trackr.live / text

‹ back to catalog

STARLINK-30099

NORAD 56304 · 2023-056U

PAYLOAD ACTIVE UNKNOWN

§ Identity

Operator
Country
US
Launch date
2023-04-19
Launch site
AFETR
Launch vehicle
Mass (kg)
RCS (m²)

Purposes: comms

External: N2YO · Heavens-Above · Gunter

§ Orbital elements

Epoch: 2026-05-25T00:05:11.111712Z

Period
94.27 min
Inclination
43.0016°
Eccentricity
0.0001162
Mean motion
15.27582969 rev/d
Perigee alt
482.2 km
Apogee alt
483.8 km
Semi-major
6,861.2 km
B*
1.0517e-4
RAAN
137.6424°
Arg perigee
279.3183°
Mean anomaly
80.7537°
Rev number
17,177

§ Raw data

STARLINK-300991 56304U 23056U   26145.00360083  .00002633  00000+0  10517-3 0  99922 56304  43.0016 137.6424 0001162 279.3183  80.7537 15.27582969171771

JSON: /api/v1/satellites/56304 · /tle

For live sub-satellite position, see the globe view (requires WebGL).

§ Visibility from observer

Set your observer location to see the next 7 days of passes ≥ 10°. The values pass through the URL so the page stays shareable.

No JS? Fill the form by hand. The geolocation button needs JavaScript.